When you browse on this site, cookies collect data to enhance your experience and personalize the content and advertising you see.
Visit our Privacy Policy to learn more. By continuing to use the site, you agree to this use of cookies and data.
  • en France
  • Liste des pays
  • À 7 jours
  • Température de l'eau
  • Carte satellitaire
  • Carte météo
  • Widgets météo
  • user-avatar
    Se connecter

    Météo par heure à Baranovo

    Ce jour, 19 Février, Mardi

    Heure Température Précipitation Vent Pression Humidité
    00:00 -5°C° 0 mm 2 m/s 750 mmHg 85%
    01:00 -6°C° 0 mm 3 m/s 750 mmHg 83%
    02:00 -7°C° 0 mm 3 m/s 750 mmHg 82%
    03:00 -7°C° 0 mm 3 m/s 749 mmHg 80%
    04:00 -7°C° 0 mm 3 m/s 748 mmHg 79%
    05:00 -7°C° 0 mm 4 m/s 748 mmHg 77%
    06:00 -7°C° 0 mm 4 m/s 747 mmHg 77%
    07:00 -7°C° 0 mm 4 m/s 747 mmHg 77%
    08:00 -7°C° 0 mm 4 m/s 747 mmHg 77%
    09:00 -4°C° 0 mm 4 m/s 746 mmHg 76%
    10:00 -3°C° 0 mm 4 m/s 746 mmHg 75%
    11:00 -2°C° 0 mm 5 m/s 745 mmHg 74%
    12:00 -1°C° 0 mm 5 m/s 744 mmHg 75%
    13:00 0°C° 0 mm 5 m/s 744 mmHg 76%
    14:00 0°C° 0 mm 5 m/s 743 mmHg 77%
    15:00 0°C° 0 mm 5 m/s 742 mmHg 80%
    16:00 -1°C° 0 mm 5 m/s 742 mmHg 83%
    17:00 -1°C° 0 mm 5 m/s 741 mmHg 86%
    18:00 -1°C° 0 mm 5 m/s 740 mmHg 87%
    19:00 -1°C° 0 mm 5 m/s 740 mmHg 87%
    20:00 -1°C° 0 mm 5 m/s 739 mmHg 88%
    21:00 0°C° 0 mm 5 m/s 738 mmHg 89%
    22:00 0°C° 0 mm 4 m/s 738 mmHg 90%
    23:00 0°C° 0 mm 4 m/s 737 mmHg 91%

    Demain, 20 Février, Mercredi

    Heure Température Précipitation Vent Pression Humidité
    00:00 0°C° 0 mm 4 m/s 736 mmHg 91%
    01:00 0°C° 0 mm 4 m/s 736 mmHg 91%
    02:00 -1°C° 0 mm 4 m/s 736 mmHg 91%
    03:00 0°C° 0.2 mm 4 m/s 735 mmHg 92%
    04:00 0°C° 0.2 mm 4 m/s 735 mmHg 92%
    05:00 +1°C° 0.2 mm 3 m/s 735 mmHg 92%
    06:00 0°C° 0.1 mm 4 m/s 735 mmHg 92%
    07:00 0°C° 0.1 mm 4 m/s 735 mmHg 92%
    08:00 0°C° 0.1 mm 4 m/s 735 mmHg 92%
    09:00 0°C° 0.1 mm 4 m/s 735 mmHg 91%
    10:00 0°C° 0.1 mm 4 m/s 735 mmHg 90%
    11:00 +1°C° 0.1 mm 4 m/s 734 mmHg 88%
    12:00 +1°C° 0.1 mm 4 m/s 734 mmHg 87%
    13:00 +1°C° 0.1 mm 4 m/s 734 mmHg 86%
    14:00 +1°C° 0.1 mm 4 m/s 734 mmHg 86%
    15:00 +1°C° 0.2 mm 4 m/s 734 mmHg 86%
    16:00 0°C° 0.2 mm 4 m/s 733 mmHg 86%
    17:00 0°C° 0.2 mm 4 m/s 733 mmHg 86%
    18:00 0°C° 0.3 mm 5 m/s 733 mmHg 84%
    19:00 -1°C° 0.3 mm 5 m/s 733 mmHg 82%
    20:00 -1°C° 0.3 mm 5 m/s 733 mmHg 80%
    21:00 -2°C° 0.1 mm 5 m/s 734 mmHg 82%
    22:00 -4°C° 0.1 mm 5 m/s 734 mmHg 84%
    23:00 -4°C° 0.1 mm 4 m/s 734 mmHg 85%

    Après-demain, 21 Février, Jeudi

    Heure Température Précipitation Vent Pression Humidité
    00:00 -5°C° 0.3 mm 5 m/s 735 mmHg 83%
    01:00 -5°C° 0.3 mm 5 m/s 735 mmHg 81%
    02:00 -5°C° 0.3 mm 6 m/s 736 mmHg 79%
    03:00 -5°C° 0.1 mm 6 m/s 736 mmHg 77%
    04:00 -5°C° 0.1 mm 6 m/s 737 mmHg 76%
    05:00 -6°C° 0.1 mm 6 m/s 737 mmHg 75%
    06:00 -6°C° 0.1 mm 6 m/s 738 mmHg 73%
    07:00 -8°C° 0.1 mm 6 m/s 738 mmHg 71%
    08:00 -9°C° 0.1 mm 6 m/s 739 mmHg 69%
    09:00 -8°C° 0.1 mm 6 m/s 739 mmHg 69%
    10:00 -8°C° 0.1 mm 6 m/s 740 mmHg 69%
    11:00 -8°C° 0.1 mm 6 m/s 741 mmHg 69%
    12:00 -8°C° 0 mm 6 m/s 741 mmHg 67%
    13:00 -6°C° 0 mm 6 m/s 742 mmHg 66%
    14:00 -6°C° 0 mm 6 m/s 742 mmHg 65%
    15:00 -8°C° 0 mm 6 m/s 743 mmHg 66%
    16:00 -8°C° 0 mm 6 m/s 744 mmHg 67%
    17:00 -9°C° 0 mm 6 m/s 744 mmHg 69%
    18:00 -9°C° 0 mm 6 m/s 745 mmHg 69%
    19:00 -10°C° 0 mm 6 m/s 746 mmHg 70%
    20:00 -11°C° 0 mm 5 m/s 747 mmHg 70%
    21:00 -11°C° 0 mm 5 m/s 747 mmHg 70%
    22:00 -12°C° 0 mm 5 m/s 748 mmHg 69%
    23:00 -12°C° 0 mm 5 m/s 749 mmHg 69%

    22 Février, Vendredi

    Heure Température Précipitation Vent Pression Humidité
    00:00 -12°C° 0 mm 5 m/s 749 mmHg 69%
    01:00 -13°C° 0 mm 5 m/s 750 mmHg 70%
    02:00 -13°C° 0 mm 5 m/s 751 mmHg 70%
    03:00 -13°C° 0 mm 5 m/s 751 mmHg 70%
    04:00 -13°C° 0 mm 5 m/s 752 mmHg 71%
    05:00 -14°C° 0 mm 5 m/s 753 mmHg 72%
    06:00 -14°C° 0 mm 5 m/s 753 mmHg 71%
    07:00 -13°C° 0 mm 5 m/s 754 mmHg 70%
    08:00 -13°C° 0 mm 5 m/s 754 mmHg 70%
    09:00 -12°C° 0 mm 5 m/s 755 mmHg 68%
    10:00 -11°C° 0 mm 5 m/s 755 mmHg 67%
    11:00 -10°C° 0 mm 5 m/s 755 mmHg 66%
    12:00 -10°C° 0 mm 5 m/s 755 mmHg 61%
    13:00 -8°C° 0 mm 5 m/s 755 mmHg 57%
    14:00 -9°C° 0 mm 6 m/s 754 mmHg 52%
    15:00 -9°C° 0 mm 6 m/s 755 mmHg 58%
    16:00 -10°C° 0 mm 5 m/s 755 mmHg 63%
    17:00 -10°C° 0 mm 5 m/s 755 mmHg 69%
    18:00 -11°C° 0 mm 5 m/s 755 mmHg 70%
    19:00 -11°C° 0 mm 5 m/s 756 mmHg 71%
    20:00 -12°C° 0 mm 5 m/s 757 mmHg 72%
    21:00 -12°C° 0 mm 5 m/s 757 mmHg 72%
    22:00 -13°C° 0 mm 5 m/s 757 mmHg 71%
    23:00 -14°C° 0 mm 5 m/s 758 mmHg 71%

    23 Février, Samedi

    Heure Température Précipitation Vent Pression Humidité
    00:00 -14°C° 0 mm 4 m/s 758 mmHg 72%
    01:00 -14°C° 0 mm 4 m/s 758 mmHg 74%
    02:00 -14°C° 0 mm 4 m/s 759 mmHg 75%
    03:00 -15°C° 0 mm 4 m/s 759 mmHg 77%
    04:00 -14°C° 0 mm 3 m/s 759 mmHg 78%
    05:00 -14°C° 0 mm 3 m/s 759 mmHg 80%
    06:00 -14°C° 0 mm 3 m/s 759 mmHg 81%
    07:00 -14°C° 0 mm 3 m/s 759 mmHg 82%
    08:00 -14°C° 0 mm 3 m/s 760 mmHg 82%
    09:00 -13°C° 0 mm 3 m/s 760 mmHg 78%
    10:00 -12°C° 0 mm 3 m/s 760 mmHg 74%
    11:00 -10°C° 0 mm 3 m/s 760 mmHg 69%
    12:00 -10°C° 0 mm 3 m/s 760 mmHg 66%
    13:00 -8°C° 0 mm 2 m/s 760 mmHg 63%
    14:00 -7°C° 0 mm 2 m/s 759 mmHg 60%
    15:00 -7°C° 0 mm 2 m/s 759 mmHg 63%
    16:00 -8°C° 0 mm 2 m/s 759 mmHg 66%
    17:00 -7°C° 0 mm 1 m/s 759 mmHg 69%
    18:00 -7°C° 0 mm 1 m/s 760 mmHg 71%
    19:00 -7°C° 0 mm 1 m/s 760 mmHg 73%
    20:00 -8°C° 0 mm 1 m/s 760 mmHg 75%
    21:00 -8°C° 0 mm 1 m/s 760 mmHg 75%
    22:00 -8°C° 0 mm 0 m/s 760 mmHg 75%
    23:00 -8°C° 0 mm 0 m/s 760 mmHg 76%

    24 Février, Dimanche

    Heure Température Précipitation Vent Pression Humidité
    00:00 -8°C° 0 mm 0 m/s 761 mmHg 75%
    01:00 -9°C° 0 mm 0 m/s 761 mmHg 75%
    02:00 -9°C° 0 mm 0 m/s 761 mmHg 74%
    03:00 -9°C° 0 mm 0 m/s 761 mmHg 75%
    04:00 -9°C° 0 mm 1 m/s 761 mmHg 75%
    05:00 -9°C° 0 mm 1 m/s 760 mmHg 76%
    06:00 -8°C° 0 mm 1 m/s 761 mmHg 77%
    07:00 -8°C° 0 mm 1 m/s 761 mmHg 79%
    08:00 -8°C° 0 mm 1 m/s 761 mmHg 80%
    09:00 -6°C° 0 mm 1 m/s 761 mmHg 80%
    10:00 -4°C° 0 mm 1 m/s 761 mmHg 80%
    11:00 -5°C° 0 mm 2 m/s 761 mmHg 80%
    12:00 -4°C° 0 mm 2 m/s 761 mmHg 80%
    13:00 -3°C° 0 mm 2 m/s 760 mmHg 79%
    14:00 -2°C° 0 mm 2 m/s 760 mmHg 79%
    15:00 -2°C° 0 mm 2 m/s 760 mmHg 83%
    16:00 -3°C° 0 mm 2 m/s 759 mmHg 86%
    17:00 -3°C° 0 mm 2 m/s 759 mmHg 90%
    18:00 -3°C° 0 mm 2 m/s 759 mmHg 90%
    19:00 -3°C° 0 mm 2 m/s 759 mmHg 90%
    20:00 -3°C° 0 mm 2 m/s 758 mmHg 91%
    21:00 -3°C° 0 mm 2 m/s 758 mmHg 92%
    22:00 -3°C° 0 mm 2 m/s 757 mmHg 93%
    23:00 -4°C° 0 mm 2 m/s 757 mmHg 94%
    Voir plus